Location: Lourdes
(43.1000°N, 0.0500°W)
Time: 09:31:27
(UTC+00:00)

Cosmos 1633 Rocket - Pass Details

Date: 30 November 2020
Orbit: 607 x 624 km, 82.5° (Epoch: 25 January)

Event Time Altitude Azimuth Distance (km) Brightness Sun altitude
Rises 17:46:18 0° 348° (NNW) 2,894 6.5 -14.2°
Reaches altitude 10° 17:48:34 10° 344° (NNW) 1,981 5.6 -14.6°
Maximum altitude 17:52:52 59° 266° (W) 710 3.7 -15.4°
Drops below altitude 10° 17:57:08 10° 187° (S) 1,957 5.9 -16.1°
Sets 17:59:21 0° 183° (S) 2,854 6.7 -16.5°
